Temperature
18 18 18 18 18 18 18 18 18 19 19 19 19 19 19 19 19 19 18 18 18 18 18 18 18 18 18 18 18 18 18 18 18 18 18 18 18 18 18 18 18 18 18
18 18 18 18 18 18 18 18 18 18 18 18 18 18 18 18 18 18 18 18 18 18 18 18 18 18 18 18 18 18 18 18 18 18 18 18 18 18 18 18 18 18 18
18 18 18 18 18 18 18 18 18 18 18 18 18 18 18 18 18 18 18 18 18 18 18 18 18 18 18 18 18 18 18 18 18 18 18 18 18 18 18 18 18 18 18
18 18 18 18 18 18 18 18 18 18 18 18 18 18 18 18 18 18 18 18 18 17 17 18 17 17 18 18 18 18 18 18 18 18 18 18 18 18 18 18 18 18 18
18 18 18 18 18 18 18 18 18 18 18 18 18 17 17 17 17 17 17 17 17 17 17 17 17 17 17 17 17 18 18 18 18 18 18 18 18 18 18 18 18 18 18
18 18 18 18 18 18 18 18 18 17 17 17 17 17 17 17 17 17 17 17 17 17 17 17 17 17 17 17 17 17 18 18 18 18 18 18 18 18 18 18 18 18 18
18 18 18 18 18 18 18 18 17 17 17 17 17 17 17 16 16 16 16 16 16 16 16 16 17 17 17 17 17 17 17 18 17 17 18 18 18 18 18 18 18 18 18
18 18 18 18 18 18 17 17 17 17 17 17 16 16 16 16 16 16 16 16 16 16 16 16 16 16 16 17 17 17 17 17 17 17 17 17 17 17 18 18 18 18 18
18 18 18 18 18 17 17 17 17 17 17 16 16 16 16 16 16 16 16 16 16 16 16 16 16 16 16 16 17 17 17 17 17 17 17 17 17 17 18 18 18 18 18
18 18 18 18 18 17 17 17 17 17 16 16 16 16 16 16 16 16 16 16 16 16 16 16 16 16 16 16 16 16 17 17 17 17 17 17 17 17 17 18 18 18 18
18 18 18 18 18 18 17 17 17 17 16 16 16 16 16 16 16 16 15 15 15 15 15 15 16 16 16 16 16 16 16 17 17 17 17 17 17 17 17 18 18 18 18
18 18 18 18 18 18 17 17 17 17 16 16 16 16 16 16 16 16 15 15 15 15 15 15 15 16 16 16 16 16 16 17 17 17 17 17 17 17 17 17 18 18 18
19 19 18 18 18 18 17 17 17 17 16 16 16 16 16 16 16 15 15 15 15 15 15 15 15 15 16 16 16 16 16 16 17 17 17 17 17 17 17 17 17 18 18
19 19 18 18 18 18 18 17 17 17 17 16 16 16 16 16 15 15 15 15 15 15 15 15 15 15 15 16 16 16 16 16 16 16 17 17 17 17 17 17 17 17 17
19 19 19 19 18 18 18 17 17 17 17 16 16 16 16 16 15 15 15 15 15 15 15 15 15 15 15 15 16 16 16 16 16 16 16 16 16 17 17 17 17 17 17
19 19 19 19 18 18 18 18 17 17 17 16 16 16 16 15 15 15 15 15 15 15 15 15 15 15 15 15 15 16 16 16 16 16 16 16 16 16 16 17 17 17 17
20 19 19 19 18 18 18 18 17 17 17 16 16 16 16 15 15 15 15 15 15 15 15 15 15 15 15 15 15 16 16 16 16 16 16 16 16 16 16 17 17 17 17
20 20 19 19 18 18 18 17 17 17 17 16 16 16 15 15 15 15 15 15 14 14 15 15 15 15 15 15 15 16 16 16 16 16 16 16 16 16 16 16 17 17 17
20 20 19 19 18 18 18 18 17 17 17 16 16 16 15 15 15 15 15 14 14 14 14 14 14 15 15 15 15 15 15 15 16 16 16 16 16 16 16 16 16 17 17
20 20 19 19 19 18 18 18 17 17 17 16 16 16 15 15 15 15 15 14 14 14 14 14 14 14 15 15 15 15 15 15 15 16 16 16 16 16 16 16 16 16 17
20 20 19 19 19 18 18 18 17 17 16 16 16 16 15 15 15 15 15 15 14 14 14 14 14 14 15 15 15 15 15 15 15 16 15 16 16 16 16 16 16 16 16
20 19 19 19 19 18 18 18 17 17 16 16 16 16 15 15 15 15 15 15 14 14 14 14 14 14 14 15 15 15 15 15 15 15 15 15 16 16 16 16 16 16 16
19 19 19 19 19 18 18 17 17 17 16 16 16 16 15 15 15 15 15 15 15 14 14 14 14 14 14 14 14 14 14 14 15 15 15 15 15 16 16 16 16 16 16
19 19 19 19 18 18 18 17 17 17 16 16 16 16 15 15 15 15 15 15 15 14 14 14 14 14 14 14 14 14 14 14 14 14 15 15 15 15 15 16 16 16 16
19 19 18 18 18 18 17 17 17 17 16 16 16 16 15 15 15 15 15 15 15 14 14 14 14 14 14 14 14 14 14 14 14 14 14 15 15 15 15 15 16 16 16
18 18 18 18 18 17 17 17 17 16 16 16 16 15 15 15 15 15 15 15 15 14 14 14 14 14 14 14 14 14 14 14 14 14 14 14 15 15 15 15 15 15 15
Wind_Speed
3 6 11 11 11 12 12 12 12 12 12 12 12 12 12 11 11 10 10 9 9 9 9 9 9 9 9 8 8 8 7 7 7 7 6 7 6 7 7 7 7 6 8
7 9 12 12 12 12 12 12 12 12 12 12 11 11 11 10 10 9 9 8 8 8 8 8 8 8 8 7 7 7 7 7 7 6 5 5 5 6 6 7 7 6 8
9 10 11 12 12 12 12 12 12 12 11 11 11 10 10 9 9 8 8 8 8 7 7 7 7 7 7 6 6 6 7 7 7 6 5 3 3 5 6 6 7 8 8
10 10 11 12 13 12 12 12 11 11 10 10 9 9 9 9 8 8 7 7 7 7 6 6 6 6 5 5 6 6 6 7 7 6 4 2 1 4 5 6 7 7 7
10 11 12 13 13 12 12 11 10 10 10 9 8 8 8 8 8 8 7 7 6 6 6 6 5 5 4 5 5 5 6 6 6 5 4 2 1 4 5 5 6 6 7
9 11 13 14 13 12 11 11 10 9 8 8 7 7 7 7 7 6 6 6 5 5 5 5 5 4 4 4 5 5 6 6 5 4 3 1 2 4 5 5 6 6 6
8 10 13 13 13 12 11 10 9 8 7 6 6 5 5 5 5 4 4 4 4 4 4 4 4 5 4 5 5 5 6 6 4 3 2 1 2 4 5 5 5 5 5
10 9 12 13 13 12 11 10 9 7 6 5 4 3 2 2 2 2 2 3 3 4 4 4 5 5 5 5 6 6 6 6 4 4 3 1 3 5 5 5 5 5 5
9 8 8 10 11 11 10 9 8 6 5 3 1 1 1 2 2 2 3 3 3 3 4 5 6 6 6 7 7 7 7 7 4 3 3 2 3 5 5 5 4 4 4
8 7 7 8 8 8 8 8 7 6 4 2 1 2 2 3 4 4 5 6 5 5 5 6 7 7 8 8 9 9 8 7 4 4 3 3 4 5 5 5 5 4 4
7 6 5 6 7 7 6 6 6 4 3 2 3 3 4 4 5 4 4 5 5 5 6 7 8 8 9 9 10 10 8 3 3 3 4 5 4 5 5 5 6 5 5
6 6 6 6 6 7 6 4 3 2 2 2 2 3 3 3 3 3 3 4 5 6 7 8 8 8 8 7 8 8 4 3 3 3 4 5 5 5 5 6 6 6 6
7 6 6 6 6 6 3 4 2 2 0 1 2 3 3 4 4 5 4 5 6 6 6 7 8 7 6 5 4 4 3 2 2 2 4 5 5 5 5 6 6 6 7
6 6 6 6 5 4 4 3 3 2 1 2 3 4 4 3 3 3 3 4 4 5 4 5 4 5 5 5 4 3 2 1 1 2 3 5 5 5 6 6 6 6 7
6 6 5 5 5 4 3 2 3 2 2 3 4 5 4 2 2 2 2 4 5 5 4 3 3 4 4 4 3 2 2 1 1 2 2 4 4 5 5 5 5 6 7
7 6 5 5 4 4 4 3 2 3 3 4 4 5 6 4 3 2 3 3 4 5 4 3 4 4 3 3 4 4 2 1 1 1 2 3 4 4 4 5 5 6 7
7 7 6 6 5 5 4 3 3 4 4 3 4 5 6 6 4 3 3 3 3 6 6 5 4 4 4 4 5 4 2 1 1 1 2 2 3 4 4 5 5 6 7
7 6 5 6 6 5 4 3 3 4 4 3 4 5 6 5 5 4 3 3 4 5 4 3 4 4 4 4 4 4 3 2 2 1 1 2 2 2 3 5 5 6 7
8 7 6 6 5 5 4 3 4 3 3 3 3 3 4 5 5 3 2 2 4 3 4 4 3 3 3 5 4 3 3 3 2 2 1 1 1 1 2 3 5 6 7
6 7 6 5 5 5 4 3 3 3 2 2 2 2 3 3 4 3 2 3 4 3 4 4 4 3 2 3 4 4 3 3 2 2 1 1 1 0 1 2 3 4 7
5 5 5 5 4 4 3 2 2 1 0 1 1 1 2 2 3 3 2 3 3 3 3 4 3 4 4 3 3 4 4 4 4 3 2 2 2 1 1 1 2 3 4
4 4 3 4 3 3 2 2 2 2 0 0 1 1 1 1 2 2 2 2 2 2 4 4 3 3 3 3 2 2 4 5 4 4 3 2 2 1 1 0 1 2 3
4 3 4 3 4 3 3 2 3 3 3 3 2 2 2 1 1 2 1 1 1 1 2 3 2 2 2 3 2 2 2 1 3 4 4 3 3 2 1 1 1 2 3
3 4 4 4 4 3 4 4 3 2 1 2 2 2 2 2 2 2 1 0 1 1 1 2 1 1 1 2 2 1 1 3 1 3 4 3 3 2 2 0 0 1 2
4 5 5 6 5 4 5 4 4 2 1 1 1 2 2 3 3 2 1 1 1 1 1 2 2 1 1 1 0 1 1 1 1 1 2 4 3 3 2 1 0 0 1
5 6 6 6 5 4 5 5 4 3 2 2 3 3 2 3 3 3 2 1 1 1 1 1 1 1 0 0 0 0 1 0 1 1 2 2 2 3 2 2 0 1 1
Wind_Direction
123 131 124 115 110 106 102 97 93 90 88 84 82 80 77 75 73 71 70 67 65 63 61 60 58 57 56 55 53 50 48 48 47 45 45 51 56 65 67 64 56 55 57
137 129 124 119 114 109 104 99 94 90 88 84 80 78 75 71 69 67 64 62 59 59 56 55 53 53 50 48 45 41 39 37 33 31 35 51 63 74 75 69 62 62 61
127 126 123 120 114 109 104 100 96 91 88 84 80 76 73 68 63 61 57 56 54 52 49 45 43 46 45 41 36 31 29 26 20 20 23 46 78 80 82 75 70 67 65
129 126 124 120 114 110 106 101 98 94 90 85 81 76 71 66 61 57 53 51 48 45 42 38 36 37 35 31 25 17 15 14 12 20 23 17 75 95 92 82 76 73 69
124 124 125 121 117 112 108 103 99 95 91 86 81 76 71 65 60 55 50 47 44 40 37 34 29 26 21 17 11 3 0 2 9 21 27 32 96 112 102 89 81 78 74
125 126 128 125 121 117 112 107 103 99 94 89 83 78 71 63 57 52 47 43 38 32 27 25 15 10 6 1 354 347 346 349 3 18 19 2 154 129 109 97 90 84 74
131 132 133 131 128 124 120 115 110 105 99 93 86 78 70 60 55 50 42 38 33 25 17 11 1 354 349 342 336 332 332 336 348 10 4 324 192 148 121 107 98 95 84
140 140 140 139 136 134 131 128 126 121 112 103 95 81 65 51 39 19 8 9 9 8 2 356 347 337 333 326 320 319 319 321 335 352 336 288 205 163 135 120 105 102 100
144 145 148 150 148 146 144 143 141 138 137 133 124 27 349 339 316 299 293 300 321 333 333 332 329 327 320 314 311 310 308 309 319 319 305 274 202 172 153 138 120 115 115
147 153 158 160 160 158 159 157 155 156 166 181 231 288 312 327 322 294 276 276 292 311 315 316 316 316 313 309 305 304 302 306 308 304 282 256 211 189 170 152 138 128 126
157 170 170 170 174 175 178 181 176 180 206 254 297 307 325 336 331 311 281 281 295 310 314 317 314 311 312 310 307 304 306 299 285 284 256 245 224 196 176 162 153 143 137
168 178 180 182 187 193 194 182 192 208 246 291 313 323 344 347 337 350 333 328 322 321 326 330 327 324 321 315 311 309 309 293 269 259 242 229 217 198 180 168 162 157 147
166 163 168 175 175 174 170 165 164 177 241 347 353 3 32 36 21 24 11 359 353 347 344 342 344 337 325 313 308 306 303 288 262 250 232 216 210 202 187 174 167 165 160
142 150 156 160 157 156 149 145 143 134 95 41 25 35 49 46 33 28 19 9 4 354 348 345 341 339 334 325 310 300 306 279 250 225 225 208 207 205 193 182 175 173 173
138 139 148 145 141 140 130 128 117 117 102 76 56 51 62 60 39 26 11 14 5 3 359 350 348 346 342 339 341 341 324 277 229 190 219 217 214 205 197 190 183 183 179
146 144 141 136 137 127 122 118 116 110 100 80 63 58 65 68 57 43 20 10 4 2 360 358 354 350 337 339 341 342 333 304 220 183 207 231 231 217 205 196 192 189 183
152 145 140 138 121 117 121 117 109 108 103 82 65 60 64 67 64 57 31 9 353 0 8 11 6 5 2 359 351 344 347 342 313 203 211 229 247 235 216 205 200 194 185
148 144 145 133 119 114 114 109 101 105 104 90 77 65 57 58 59 55 33 2 357 10 11 6 9 2 359 357 348 344 354 347 352 315 245 230 240 240 229 212 201 194 189
153 146 141 134 131 126 117 108 102 101 96 91 80 69 56 49 50 56 33 354 6 15 6 3 12 5 355 349 339 350 359 358 344 2 355 294 256 238 223 218 208 195 192
151 145 143 138 137 125 104 93 78 63 50 64 73 63 64 48 48 49 33 8 15 19 7 5 2 1 351 342 351 2 358 354 1 357 343 344 6 7 199 207 208 204 196
122 133 142 143 149 128 103 110 107 103 348 1 331 54 58 48 46 46 25 13 19 25 2 360 5 4 357 360 24 1 354 3 16 2 353 2 2 12 96 162 186 189 195
112 121 130 145 147 138 134 145 148 142 171 259 318 350 347 22 32 43 39 13 11 22 7 4 17 12 358 20 51 41 4 354 353 358 355 359 354 14 33 85 146 168 186
103 120 131 131 132 129 116 91 72 54 30 13 356 335 316 318 357 28 41 32 16 47 360 345 9 43 5 355 45 104 90 315 321 336 346 352 357 6 356 46 79 179 179
96 96 94 101 105 105 97 94 109 112 117 269 275 300 311 321 336 5 23 47 10 19 349 328 18 51 78 357 349 24 169 184 183 332 331 339 344 345 335 354 89 198 183
94 90 90 90 81 83 90 96 103 102 160 305 345 4 341 330 335 340 345 5 329 326 323 336 351 15 108 140 333 334 17 40 144 165 302 327 339 329 322 308 202 188 186
82 86 87 85 73 73 79 79 97 100 80 48 17 12 348 333 328 328 329 329 308 301 301 300 317 325 290 185 221 162 160 190 239 189 231 285 304 308 318 316 270 197 196
Height
1525 1526 1526 1526 1526 1526 1526 1526 1526 1527 1526 1526 1526 1526 1527 1527 1526 1526 1526 1526 1526 1526 1525 1525 1525 1525 1524 1524 1524 1523 1523 1523 1522 1522 1521 1521 1520 1519 1519 1518 1517 1515 1514
1525 1526 1526 1526 1527 1527 1527 1527 1527 1527 1527 1527 1527 1527 1527 1527 1527 1527 1526 1526 1526 1526 1525 1525 1525 1524 1524 1524 1524 1523 1523 1523 1522 1522 1522 1521 1520 1520 1519 1518 1517 1516 1515
1526 1527 1527 1527 1527 1527 1527 1528 1528 1528 1527 1527 1527 1527 1527 1527 1527 1526 1526 1526 1526 1525 1525 1525 1525 1524 1524 1524 1524 1523 1523 1523 1523 1522 1522 1521 1521 1520 1519 1519 1518 1517 1516
1527 1527 1528 1528 1528 1528 1528 1528 1528 1528 1528 1528 1527 1527 1527 1527 1526 1526 1526 1525 1525 1525 1524 1524 1524 1524 1523 1523 1523 1523 1523 1523 1523 1523 1522 1522 1521 1521 1520 1519 1519 1517 1516
1528 1528 1529 1529 1529 1529 1529 1529 1529 1528 1528 1528 1528 1527 1527 1527 1526 1526 1525 1525 1524 1524 1524 1523 1523 1523 1523 1523 1523 1523 1523 1523 1523 1523 1522 1522 1522 1521 1521 1520 1519 1518 1517
1529 1529 1530 1530 1530 1530 1530 1529 1529 1529 1529 1528 1528 1528 1527 1527 1526 1526 1525 1525 1524 1524 1523 1523 1522 1522 1522 1522 1522 1522 1522 1522 1523 1522 1522 1522 1522 1521 1521 1520 1520 1519 1518
1530 1530 1531 1531 1531 1531 1530 1530 1530 1529 1529 1529 1528 1528 1528 1527 1527 1526 1525 1525 1524 1523 1523 1522 1522 1521 1521 1521 1521 1521 1521 1522 1522 1522 1522 1522 1522 1522 1521 1521 1520 1519 1519
1531 1531 1532 1532 1532 1531 1531 1531 1531 1530 1530 1530 1529 1529 1528 1528 1527 1526 1526 1525 1524 1523 1523 1522 1521 1521 1521 1521 1520 1520 1521 1521 1521 1522 1522 1522 1522 1522 1522 1521 1521 1520 1519
1532 1533 1533 1533 1533 1533 1533 1532 1532 1532 1531 1531 1530 1529 1529 1528 1527 1526 1526 1525 1524 1523 1523 1522 1521 1521 1520 1520 1520 1520 1520 1520 1521 1521 1522 1522 1522 1522 1522 1522 1521 1521 1520
1533 1534 1534 1534 1534 1534 1534 1534 1533 1533 1532 1532 1531 1530 1529 1528 1527 1527 1526 1525 1524 1523 1523 1522 1521 1521 1520 1520 1520 1519 1519 1519 1520 1520 1521 1521 1521 1521 1521 1522 1521 1521 1521
1534 1535 1535 1535 1536 1535 1535 1535 1535 1534 1533 1532 1531 1530 1530 1529 1528 1527 1526 1525 1524 1523 1522 1522 1521 1520 1520 1519 1519 1519 1519 1519 1519 1519 1520 1520 1521 1521 1521 1521 1522 1522 1521
1535 1536 1536 1536 1537 1536 1536 1536 1535 1535 1534 1533 1532 1531 1530 1529 1528 1527 1526 1525 1524 1523 1522 1521 1520 1520 1519 1519 1518 1518 1518 1518 1518 1518 1519 1520 1520 1520 1521 1521 1522 1522 1522
1535 1536 1537 1537 1537 1537 1537 1537 1536 1535 1535 1534 1532 1531 1530 1529 1528 1527 1526 1525 1524 1523 1522 1521 1520 1519 1518 1518 1517 1517 1517 1517 1517 1518 1518 1519 1519 1520 1520 1521 1521 1522 1522
1536 1537 1538 1538 1538 1538 1538 1537 1537 1536 1535 1534 1533 1532 1531 1530 1528 1527 1526 1525 1524 1523 1522 1521 1520 1519 1518 1517 1517 1516 1516 1516 1517 1517 1517 1518 1518 1519 1519 1520 1521 1522 1522
1537 1538 1538 1539 1539 1539 1539 1538 1537 1537 1536 1535 1534 1532 1531 1530 1529 1527 1526 1525 1524 1523 1521 1520 1519 1518 1517 1516 1516 1516 1516 1516 1516 1516 1517 1517 1518 1518 1519 1520 1520 1521 1522
1538 1538 1539 1539 1539 1539 1539 1539 1538 1537 1537 1536 1534 1533 1532 1530 1529 1528 1526 1525 1524 1522 1521 1520 1518 1517 1517 1516 1515 1515 1515 1515 1516 1516 1516 1517 1517 1517 1518 1519 1520 1521 1522
1538 1539 1539 1540 1540 1540 1539 1539 1538 1538 1537 1536 1535 1533 1532 1531 1529 1528 1526 1525 1523 1522 1521 1519 1518 1517 1516 1516 1515 1515 1515 1515 1515 1515 1516 1516 1516 1517 1518 1519 1520 1521 1522
1538 1539 1540 1540 1540 1540 1540 1539 1539 1538 1537 1536 1535 1534 1532 1531 1529 1528 1526 1525 1524 1522 1521 1519 1518 1517 1516 1515 1515 1515 1514 1514 1515 1515 1515 1515 1516 1517 1517 1518 1519 1520 1521
1538 1539 1539 1540 1540 1540 1540 1539 1538 1538 1538 1537 1535 1534 1533 1531 1530 1528 1527 1525 1524 1522 1521 1519 1518 1517 1516 1515 1515 1514 1514 1514 1514 1515 1515 1515 1516 1516 1517 1518 1519 1520 1521
1539 1539 1539 1540 1540 1540 1540 1539 1539 1538 1538 1537 1536 1534 1533 1532 1530 1529 1527 1526 1524 1523 1521 1520 1518 1517 1516 1515 1515 1514 1514 1514 1514 1514 1515 1515 1516 1516 1517 1518 1519 1520 1521
1539 1539 1539 1540 1540 1539 1539 1539 1539 1538 1538 1537 1536 1535 1533 1532 1531 1529 1528 1526 1525 1523 1521 1520 1519 1517 1516 1516 1515 1514 1514 1514 1514 1514 1515 1515 1515 1516 1516 1517 1518 1519 1520
1538 1539 1539 1540 1540 1539 1539 1539 1538 1538 1537 1537 1536 1535 1534 1533 1531 1530 1528 1527 1525 1524 1522 1521 1519 1518 1517 1516 1516 1515 1515 1516 1515 1514 1514 1515 1515 1515 1516 1517 1517 1518 1520
1538 1538 1539 1539 1539 1539 1539 1538 1538 1538 1538 1537 1536 1535 1534 1533 1532 1530 1529 1527 1526 1524 1523 1521 1520 1519 1518 1518 1517 1517 1516 1515 1515 1515 1514 1514 1515 1515 1515 1516 1517 1518 1519
1538 1538 1538 1539 1539 1538 1538 1538 1537 1537 1537 1536 1536 1535 1534 1533 1532 1531 1529 1528 1526 1525 1523 1522 1521 1520 1519 1518 1517 1517 1517 1516 1516 1515 1515 1515 1514 1515 1515 1516 1516 1517 1518
1538 1538 1538 1538 1538 1538 1538 1537 1537 1537 1536 1536 1536 1535 1534 1533 1532 1531 1529 1528 1526 1525 1524 1523 1521 1520 1519 1518 1518 1517 1517 1516 1516 1515 1514 1514 1514 1514 1514 1515 1515 1516 1517
1538 1538 1538 1538 1537 1537 1537 1537 1537 1536 1536 1535 1535 1534 1534 1533 1532 1531 1529 1528 1527 1526 1524 1523 1522 1520 1519 1518 1518 1517 1516 1516 1515 1515 1514 1513 1513 1513 1513 1514 1514 1515 1516